Home   Weather   Perg   Past weeks

Flag for Austria Past Weather in Perg, Upper Austria, Austria — Yesterday and Last 2 Weeks

Now
60 °F

Refreshingly cool.


Feels Like: 60 °F
Forecast: 34 / 67 °F
Wind: 2 mph from Southwest

Location: Amstetten

Current Time: Apr 24, 2017 at 5:33:19 pm

Latest Report: Apr 24, 2017 at 4:00 pm


Visibility: N/A

Pressure: 29.96 "Hg

Humidity: 46%

Dew Point: 38 °F

Location of PergLocation

Past Weather in Perg — Graph

°F

Perg Temperature Yesterday

Maximum temperature yesterday: 50 °F (at 4:00 pm)
Minimum temperature yesterday: 38 °F (at 5:00 am)
Average temperature yesterday: 44 °F

High & Low Weather Summary for the Past Weeks

 TemperatureHumidityPressure
High73 °F (Apr 10, 5:00 pm)100% (Apr 10, 7:00 am)30.55 "Hg (Apr 10, 7:00 am)
Low30 °F (Apr 24, 6:00 am)39% (Apr 9, 5:00 pm)29.83 "Hg (Apr 13, 6:00 am)
Average47 °F74%30.14 "Hg
* Reported Apr 9 4:00 pm — Apr 24 4:00 pm, Perg, Weather by CustomWeather, © 2017

Note: Actual official high and low records may vary slightly from our data, if they occured in-between our weather recording intervals... More about our weather records

Advertising

Perg Weather History for the Previous 24 Hours

Scroll right to see more
 ConditionsComfort  
Time TempWeatherWind HumidityBarometerVisibility
4:00 pm
Mon, Apr 24
60 °FRefreshingly cool.2 mph46%29.96 "HgN/A
3:00 pm58 °FRefreshingly cool.2 mph43%29.99 "HgN/A
2:00 pm55 °FRefreshingly cool.1 mph49%30.03 "HgN/A
1:00 pm54 °FCool.2 mph46%30.06 "HgN/A
12:00 pm52 °FCool.1 mph46%30.10 "HgN/A
11:00 am50 °FCool.2 mph47%30.13 "HgN/A
10:00 am47 °FCool.1 mph55%30.15 "HgN/A
9:00 am42 °FQuite cool.2 mph69%30.19 "HgN/A
8:00 am38 °FPartly sunny.1 mph87%30.21 "HgN/A
7:00 am34 °FChilly.1 mph95%30.22 "HgN/A
6:00 am30 °FChilly.No wind97%30.23 "HgN/A
5:00 am33 °FChilly.1 mph95%30.23 "HgN/A
4:00 am34 °FChilly.No wind93%30.24 "HgN/A
3:00 am37 °FChilly.No wind87%30.24 "HgN/A
2:00 am40 °FQuite cool.1 mph78%30.24 "HgN/A
1:00 am42 °FQuite cool.1 mph75%30.26 "HgN/A
12:00 am43 °FQuite cool.2 mph66%30.25 "HgN/A
11:00 pm
Sun, Apr 23
43 °FQuite cool.3 mph64%30.25 "HgN/A
10:00 pm44 °FQuite cool.2 mph58%30.24 "HgN/A
9:00 pm45 °FCool.2 mph57%30.21 "HgN/A
8:00 pm47 °FCool.3 mph52%30.19 "HgN/A
7:00 pm48 °FCool.5 mph50%30.18 "HgN/A
6:00 pm49 °FCool.6 mph47%30.16 "HgN/A
5:00 pm50 °FCool.5 mph49%30.16 "HgN/A
Weather by CustomWeather, © 2017

See weather overviewHow to use our weather pages